Time,TemperatureF,DewpointF,PressureIn,WindDirection,WindDirectionDegrees,WindSpeedMPH,WindSpeedGustMPH,Humidity,HourlyPrecipIn,Conditions,Clouds,dailyrainin,SoftwareType,DateUTC
2013-04-03 00:00:00,37.8,15.7,30.17,NNW,327,0.0,0.0,40,0.00,,---,0.00,VWS V14.01,2013-04-03 04:00:00,
2013-04-03 00:05:00,37.9,15.8,30.17,NNW,327,0.0,0.0,40,0.00,,---,0.00,VWS V14.01,2013-04-03 04:05:00,
2013-04-03 00:10:00,37.9,15.8,30.18,NNW,327,0.0,0.0,40,0.00,,---,0.00,VWS V14.01,2013-04-03 04:10:00,
2013-04-03 00:15:00,37.7,15.6,30.18,NNW,327,0.0,0.0,40,0.00,,---,0.00,VWS V14.01,2013-04-03 04:15:00,
2013-04-03 00:20:00,37.5,16.5,30.17,NNW,327,0.0,0.0,42,0.00,,---,0.00,VWS V14.01,2013-04-03 04:20:00,
2013-04-03 00:25:00,37.2,16.8,30.18,NNW,327,0.0,0.0,43,0.00,,---,0.00,VWS V14.01,2013-04-03 04:25:00,
2013-04-03 00:30:00,36.7,17.9,30.17,NNW,327,0.0,0.0,46,0.00,,---,0.00,VWS V14.01,2013-04-03 04:30:00,
2013-04-03 00:35:00,36.1,18.3,30.18,NNW,327,0.0,2.0,48,0.00,,---,0.00,VWS V14.01,2013-04-03 04:35:00,
2013-04-03 00:40:00,35.7,18.9,30.18,NNW,327,0.0,2.0,50,0.00,,---,0.00,VWS V14.01,2013-04-03 04:40:00,
2013-04-03 00:45:00,35.3,19.9,30.18,NNW,327,2.0,2.0,53,0.00,,---,0.00,VWS V14.01,2013-04-03 04:45:00,
2013-04-03 00:50:00,34.8,19.9,30.18,NNW,327,0.0,3.0,54,0.00,,---,0.00,VWS V14.01,2013-04-03 04:50:00,
2013-04-03 00:55:00,34.6,18.8,30.18,NNW,327,0.0,3.0,52,0.00,,---,0.00,VWS V14.01,2013-04-03 04:55:00,
2013-04-03 01:00:00,34.8,18.5,30.18,NNW,327,1.0,3.0,51,0.00,,---,0.00,VWS V14.01,2013-04-03 05:00:00,
2013-04-03 01:05:00,35.2,17.0,30.18,NNW,327,0.0,3.0,47,0.00,,---,0.00,VWS V14.01,2013-04-03 05:05:00,
2013-04-03 01:10:00,35.7,17.0,30.19,NNW,327,0.0,3.0,46,0.00,,---,0.00,VWS V14.01,2013-04-03 05:10:00,
2013-04-03 01:15:00,36.2,16.4,30.19,NNW,327,0.0,3.0,44,0.00,,---,0.00,VWS V14.01,2013-04-03 05:15:00,
2013-04-03 01:20:00,36.6,16.8,30.19,NNW,327,1.0,3.0,44,0.00,,---,0.00,VWS V14.01,2013-04-03 05:20:00,
2013-04-03 01:25:00,37.2,16.2,30.19,NNW,327,2.0,3.0,42,0.00,,---,0.00,VWS V14.01,2013-04-03 05:25:00,
2013-04-03 01:30:00,37.5,16.5,30.19,NW,324,2.0,6.0,42,0.00,,---,0.00,VWS V14.01,2013-04-03 05:30:00,
2013-04-03 01:35:00,37.6,17.1,30.19,NW,324,4.0,6.0,43,0.00,,---,0.00,VWS V14.01,2013-04-03 05:35:00,
2013-04-03 01:40:00,37.3,18.4,30.18,NNW,329,3.0,7.0,46,0.00,,---,0.00,VWS V14.01,2013-04-03 05:40:00,
2013-04-03 01:45:00,36.7,17.9,30.18,NNW,328,3.0,7.0,46,0.00,,---,0.00,VWS V14.01,2013-04-03 05:45:00,
2013-04-03 01:50:00,36.4,18.1,30.18,NNW,344,4.0,13.0,47,0.00,,---,0.00,VWS V14.01,2013-04-03 05:50:00,
2013-04-03 01:55:00,36.8,16.4,30.18,North,350,2.0,13.0,43,0.00,,---,0.00,VWS V14.01,2013-04-03 05:55:00,
2013-04-03 02:00:00,37.7,16.1,30.19,NW,305,3.0,4.0,41,0.00,,---,0.00,VWS V14.01,2013-04-03 06:00:00,
2013-04-03 02:05:00,38.2,15.4,30.19,WNW,302,3.0,7.0,39,0.00,,---,0.00,VWS V14.01,2013-04-03 06:05:00,
2013-04-03 02:10:00,38.6,15.2,30.19,NW,310,0.0,7.0,38,0.00,,---,0.00,VWS V14.01,2013-04-03 06:10:00,
2013-04-03 02:15:00,38.7,16.5,30.19,West,280,2.0,7.0,40,0.00,,---,0.00,VWS V14.01,2013-04-03 06:15:00,
2013-04-03 02:20:00,38.7,15.9,30.19,West,280,0.0,7.0,39,0.00,,---,0.00,VWS V14.01,2013-04-03 06:20:00,
2013-04-03 02:25:00,38.4,16.8,30.20,WSW,255,3.0,7.0,41,0.00,,---,0.00,VWS V14.01,2013-04-03 06:25:00,
2013-04-03 02:30:00,38.2,16.0,30.20,WSW,255,1.0,3.0,40,0.00,,---,0.00,VWS V14.01,2013-04-03 06:30:00,
2013-04-03 02:35:00,38.1,15.4,30.20,WSW,255,0.0,3.0,39,0.00,,---,0.00,VWS V14.01,2013-04-03 06:35:00,
2013-04-03 02:40:00,38.2,14.8,30.20,NW,307,0.0,5.0,38,0.00,,---,0.00,VWS V14.01,2013-04-03 06:40:00,
2013-04-03 02:45:00,38.4,14.4,30.21,NW,307,0.0,5.0,37,0.00,,---,0.00,VWS V14.01,2013-04-03 06:45:00,
2013-04-03 02:50:00,38.6,14.6,30.21,NW,314,3.0,5.0,37,0.00,,---,0.00,VWS V14.01,2013-04-03 06:50:00,
2013-04-03 02:55:00,38.7,14.7,30.21,NW,304,6.0,8.0,37,0.00,,---,0.00,VWS V14.01,2013-04-03 06:55:00,
2013-04-03 03:00:00,38.9,14.2,30.21,NW,305,3.0,4.0,36,0.00,,---,0.00,VWS V14.01,2013-04-03 07:00:00,
2013-04-03 03:05:00,39.2,14.5,30.21,NW,313,2.0,8.0,36,0.00,,---,0.00,VWS V14.01,2013-04-03 07:05:00,
2013-04-03 03:10:00,39.4,14.0,30.21,NNE,28,3.0,8.0,35,0.00,,---,0.00,VWS V14.01,2013-04-03 07:10:00,
2013-04-03 03:15:00,39.6,14.9,30.21,NNW,336,4.0,8.0,36,0.00,,---,0.00,VWS V14.01,2013-04-03 07:15:00,
2013-04-03 03:20:00,39.6,14.9,30.21,WNW,302,4.0,8.0,36,0.00,,---,0.00,VWS V14.01,2013-04-03 07:20:00,
2013-04-03 03:25:00,39.5,14.1,30.21,NNW,337,3.0,11.0,35,0.00,,---,0.00,VWS V14.01,2013-04-03 07:25:00,
2013-04-03 03:30:00,39.4,14.7,30.21,NNW,339,2.0,4.0,36,0.00,,---,0.00,VWS V14.01,2013-04-03 07:30:00,
2013-04-03 03:35:00,39.3,13.9,30.21,WNW,298,4.0,7.0,35,0.00,,---,0.00,VWS V14.01,2013-04-03 07:35:00,
2013-04-03 03:40:00,39.3,14.6,30.21,NNW,340,4.0,7.0,36,0.00,,---,0.00,VWS V14.01,2013-04-03 07:40:00,
2013-04-03 03:45:00,39.3,14.6,30.21,NNW,340,3.0,7.0,36,0.00,,---,0.00,VWS V14.01,2013-04-03 07:45:00,
2013-04-03 03:50:00,39.2,14.5,30.21,NW,311,2.0,7.0,36,0.00,,---,0.00,VWS V14.01,2013-04-03 07:50:00,
2013-04-03 03:55:00,39.3,13.9,30.21,NNE,17,7.0,7.0,35,0.00,,---,0.00,VWS V14.01,2013-04-03 07:55:00,
2013-04-03 04:00:00,39.4,14.7,30.21,NW,322,5.0,8.0,36,0.00,,---,0.00,VWS V14.01,2013-04-03 08:00:00,
2013-04-03 04:05:00,39.2,14.5,30.21,WNW,301,1.0,8.0,36,0.00,,---,0.00,VWS V14.01,2013-04-03 08:05:00,
2013-04-03 04:10:00,39.1,14.4,30.22,NW,315,2.0,8.0,36,0.00,,---,0.00,VWS V14.01,2013-04-03 08:10:00,
2013-04-03 04:15:00,39.0,15.6,30.21,NNW,342,0.0,9.0,38,0.00,,---,0.00,VWS V14.01,2013-04-03 08:15:00,
2013-04-03 04:20:00,38.9,14.2,30.22,NNW,346,3.0,9.0,36,0.00,,---,0.00,VWS V14.01,2013-04-03 08:20:00,
2013-04-03 04:25:00,38.8,14.8,30.22,North,355,2.0,9.0,37,0.00,,---,0.00,VWS V14.01,2013-04-03 08:25:00,
2013-04-03 04:30:00,38.7,14.7,30.22,NNW,347,3.0,5.0,37,0.00,,---,0.00,VWS V14.01,2013-04-03 08:30:00,
2013-04-03 04:35:00,38.6,14.6,30.22,NNE,22,2.0,5.0,37,0.00,,---,0.00,VWS V14.01,2013-04-03 08:35:00,
2013-04-03 04:40:00,38.5,14.5,30.22,NNE,14,4.0,5.0,37,0.00,,---,0.00,VWS V14.01,2013-04-03 08:40:00,
2013-04-03 04:45:00,38.3,14.3,30.23,North,355,2.0,5.0,37,0.00,,---,0.00,VWS V14.01,2013-04-03 08:45:00,
2013-04-03 04:50:00,38.2,14.2,30.23,North,355,0.0,5.0,37,0.00,,---,0.00,VWS V14.01,2013-04-03 08:50:00,
2013-04-03 04:55:00,38.0,14.7,30.23,NNW,347,0.0,5.0,38,0.00,,---,0.00,VWS V14.01,2013-04-03 08:55:00,
2013-04-03 05:00:00,37.8,14.5,30.23,NNW,347,2.0,3.0,38,0.00,,---,0.00,VWS V14.01,2013-04-03 09:00:00,
2013-04-03 05:05:00,37.7,14.4,30.23,North,360,1.0,3.0,38,0.00,,---,0.00,VWS V14.01,2013-04-03 09:05:00,
2013-04-03 05:10:00,37.4,14.1,30.24,North,360,1.0,3.0,38,0.00,,---,0.00,VWS V14.01,2013-04-03 09:10:00,
2013-04-03 05:15:00,37.4,15.3,30.24,North,360,4.0,4.0,40,0.00,,---,0.00,VWS V14.01,2013-04-03 09:15:00,
2013-04-03 05:20:00,37.3,15.2,30.24,NNW,336,0.0,7.0,40,0.00,,---,0.00,VWS V14.01,2013-04-03 09:20:00,
2013-04-03 05:25:00,37.1,14.4,30.24,NNW,341,1.0,7.0,39,0.00,,---,0.00,VWS V14.01,2013-04-03 09:25:00,
2013-04-03 05:30:00,36.9,15.4,30.24,North,355,3.0,6.0,41,0.00,,---,0.00,VWS V14.01,2013-04-03 09:30:00,
2013-04-03 05:35:00,36.9,15.4,30.25,NNW,328,4.0,6.0,41,0.00,,---,0.00,VWS V14.01,2013-04-03 09:35:00,
2013-04-03 05:40:00,36.8,15.3,30.25,NW,325,1.0,6.0,41,0.00,,---,0.00,VWS V14.01,2013-04-03 09:40:00,
2013-04-03 05:45:00,36.7,15.2,30.25,NNW,329,4.0,7.0,41,0.00,,---,0.00,VWS V14.01,2013-04-03 09:45:00,
2013-04-03 05:50:00,36.5,15.6,30.25,NW,319,2.0,7.0,42,0.00,,---,0.00,VWS V14.01,2013-04-03 09:50:00,
2013-04-03 05:55:00,36.4,16.0,30.25,North,360,4.0,7.0,43,0.00,,---,0.00,VWS V14.01,2013-04-03 09:55:00,
2013-04-03 06:00:00,36.3,15.4,30.25,NNW,344,2.0,5.0,42,0.00,,---,0.00,VWS V14.01,2013-04-03 10:00:00,
2013-04-03 06:05:00,36.3,15.4,30.25,NNW,347,1.0,5.0,42,0.00,,---,0.00,VWS V14.01,2013-04-03 10:05:00,
2013-04-03 06:10:00,36.2,15.9,30.25,North,350,0.0,5.0,43,0.00,,---,0.00,VWS V14.01,2013-04-03 10:10:00,
2013-04-03 06:15:00,36.1,15.8,30.25,NNW,348,0.0,5.0,43,0.00,,---,0.00,VWS V14.01,2013-04-03 10:15:00,
2013-04-03 06:20:00,35.9,15.6,30.25,NNW,346,4.0,5.0,43,0.00,,---,0.00,VWS V14.01,2013-04-03 10:20:00,
2013-04-03 06:25:00,35.7,15.4,30.25,NNW,344,0.0,5.0,43,0.00,,---,0.00,VWS V14.01,2013-04-03 10:25:00,
2013-04-03 06:30:00,35.6,15.3,30.25,NNW,345,1.0,3.0,43,0.00,,---,0.00,VWS V14.01,2013-04-03 10:30:00,
2013-04-03 06:35:00,35.5,15.8,30.25,NNW,345,1.0,4.0,44,0.00,,---,0.00,VWS V14.01,2013-04-03 10:35:00,
2013-04-03 06:40:00,35.4,15.7,30.25,NNW,345,2.0,4.0,44,0.00,,---,0.00,VWS V14.01,2013-04-03 10:40:00,
2013-04-03 06:45:00,35.2,15.5,30.25,NNW,345,2.0,4.0,44,0.00,,---,0.00,VWS V14.01,2013-04-03 10:45:00,
2013-04-03 06:50:00,35.0,15.8,30.25,NNW,345,1.0,4.0,45,0.00,,---,0.00,VWS V14.01,2013-04-03 10:50:00,
2013-04-03 06:55:00,34.8,15.6,30.25,NNW,345,0.0,4.0,45,0.00,,---,0.00,VWS V14.01,2013-04-03 10:55:00,
2013-04-03 07:00:00,34.7,15.6,30.26,NNW,345,0.0,0.0,45,0.00,,---,0.00,VWS V14.01,2013-04-03 11:00:00,
2013-04-03 07:05:00,34.6,15.5,30.26,NNW,345,0.0,0.0,45,0.00,,---,0.00,VWS V14.01,2013-04-03 11:05:00,
2013-04-03 07:10:00,34.5,15.9,30.26,NNW,345,2.0,3.0,46,0.00,,---,0.00,VWS V14.01,2013-04-03 11:10:00,
2013-04-03 07:15:00,34.4,15.8,30.26,NNW,345,0.0,3.0,46,0.00,,---,0.00,VWS V14.01,2013-04-03 11:15:00,
2013-04-03 07:20:00,34.2,15.6,30.26,NNW,345,0.0,3.0,46,0.00,,---,0.00,VWS V14.01,2013-04-03 11:20:00,
2013-04-03 07:25:00,33.8,16.7,30.26,NNW,345,0.0,3.0,49,0.00,,---,0.00,VWS V14.01,2013-04-03 11:25:00,
2013-04-03 07:30:00,33.6,16.5,30.27,NNW,345,0.0,0.0,49,0.00,,---,0.00,VWS V14.01,2013-04-03 11:30:00,
2013-04-03 07:35:00,33.3,17.1,30.27,NNW,345,0.0,1.0,51,0.00,,---,0.00,VWS V14.01,2013-04-03 11:35:00,
2013-04-03 07:40:00,33.1,17.4,30.27,NNW,345,0.0,1.0,52,0.00,,---,0.00,VWS V14.01,2013-04-03 11:40:00,
2013-04-03 07:45:00,33.1,17.0,30.27,NNW,345,0.0,1.0,51,0.00,,---,0.00,VWS V14.01,2013-04-03 11:45:00,
2013-04-03 07:50:00,33.4,16.8,30.28,NNW,345,0.0,1.0,50,0.00,,---,0.00,VWS V14.01,2013-04-03 11:50:00,
2013-04-03 07:55:00,33.8,17.1,30.28,NNW,345,0.0,1.0,50,0.00,,---,0.00,VWS V14.01,2013-04-03 11:55:00,
2013-04-03 08:00:00,34.3,16.7,30.28,NNW,345,0.0,0.0,48,0.00,,---,0.00,VWS V14.01,2013-04-03 12:00:00,
2013-04-03 08:05:00,34.8,17.1,30.29,NNW,345,0.0,1.0,48,0.00,,---,0.00,VWS V14.01,2013-04-03 12:05:00,
2013-04-03 08:10:00,35.5,17.3,30.29,NNW,345,0.0,1.0,47,0.00,,---,0.00,VWS V14.01,2013-04-03 12:10:00,
2013-04-03 08:15:00,36.2,20.3,30.30,NNW,345,0.0,1.0,52,0.00,,---,0.00,VWS V14.01,2013-04-03 12:15:00,
2013-04-03 08:20:00,36.6,18.3,30.32,NNW,345,2.0,3.0,47,0.00,,---,0.00,VWS V14.01,2013-04-03 12:20:00,
2013-04-03 08:25:00,37.2,18.3,30.32,NNW,344,1.0,3.0,46,0.00,,---,0.00,VWS V14.01,2013-04-03 12:25:00,
2013-04-03 08:30:00,37.6,18.7,30.30,NNW,346,2.0,5.0,46,0.00,,---,0.00,VWS V14.01,2013-04-03 12:30:00,
2013-04-03 08:35:00,37.9,19.5,30.30,NNW,347,1.0,5.0,47,0.00,,---,0.00,VWS V14.01,2013-04-03 12:35:00,
2013-04-03 08:40:00,38.1,18.6,30.30,NW,323,2.0,5.0,45,0.00,,---,0.00,VWS V14.01,2013-04-03 12:40:00,
2013-04-03 08:45:00,38.5,19.0,30.30,NW,323,0.0,5.0,45,0.00,,---,0.00,VWS V14.01,2013-04-03 12:45:00,
2013-04-03 08:50:00,38.9,18.3,30.29,NW,323,3.0,5.0,43,0.00,,---,0.00,VWS V14.01,2013-04-03 12:50:00,
2013-04-03 08:55:00,39.1,19.0,30.30,NW,323,1.0,5.0,44,0.00,,---,0.00,VWS V14.01,2013-04-03 12:55:00,
2013-04-03 09:00:00,39.5,18.3,30.30,NW,323,0.0,0.0,42,0.00,,---,0.00,VWS V14.01,2013-04-03 13:00:00,
2013-04-03 09:05:00,39.7,16.8,30.30,NNW,331,0.0,0.0,39,0.00,,---,0.00,VWS V14.01,2013-04-03 13:05:00,
2013-04-03 09:10:00,39.8,16.3,30.30,NE,36,0.0,0.0,38,0.00,,---,0.00,VWS V14.01,2013-04-03 13:10:00,
2013-04-03 09:15:00,39.7,16.2,30.30,ENE,59,0.0,0.0,38,0.00,,---,0.00,VWS V14.01,2013-04-03 13:15:00,
2013-04-03 09:20:00,39.8,16.9,30.31,NW,322,0.0,0.0,39,0.00,,---,0.00,VWS V14.01,2013-04-03 13:20:00,
2013-04-03 09:25:00,39.9,17.0,30.30,NNW,343,0.0,0.0,39,0.00,,---,0.00,VWS V14.01,2013-04-03 13:25:00,
2013-04-03 09:30:00,40.1,17.1,30.31,NNW,342,0.0,0.0,39,0.00,,---,0.00,VWS V14.01,2013-04-03 13:30:00,
2013-04-03 09:35:00,40.4,16.8,30.31,NW,319,0.0,0.0,38,0.00,,---,0.00,VWS V14.01,2013-04-03 13:35:00,
2013-04-03 09:40:00,40.6,17.0,30.31,North,11,0.0,0.0,38,0.00,,---,0.00,VWS V14.01,2013-04-03 13:40:00,
2013-04-03 09:45:00,40.7,17.1,30.30,North,5,0.0,0.0,38,0.00,,---,0.00,VWS V14.01,2013-04-03 13:45:00,
2013-04-03 09:50:00,41.0,16.1,30.30,North,355,0.0,0.0,36,0.00,,---,0.00,VWS V14.01,2013-04-03 13:50:00,
2013-04-03 09:55:00,40.9,17.3,30.30,North,350,0.0,0.0,38,0.00,,---,0.00,VWS V14.01,2013-04-03 13:55:00,
2013-04-03 10:00:00,41.2,16.9,30.30,North,11,0.0,0.0,37,0.00,,---,0.00,VWS V14.01,2013-04-03 14:00:00,
2013-04-03 10:05:00,41.4,16.5,30.30,NNW,327,0.0,0.0,36,0.00,,---,0.00,VWS V14.01,2013-04-03 14:05:00,
2013-04-03 10:10:00,41.6,16.6,30.30,NW,304,0.0,0.0,36,0.00,,---,0.00,VWS V14.01,2013-04-03 14:10:00,
2013-04-03 10:15:00,41.8,16.8,30.30,WNW,298,0.0,0.0,36,0.00,,---,0.00,VWS V14.01,2013-04-03 14:15:00,
2013-04-03 10:20:00,42.0,16.4,30.30,NNE,32,0.0,0.0,35,0.00,,---,0.00,VWS V14.01,2013-04-03 14:20:00,
2013-04-03 10:25:00,42.2,17.8,30.30,ENE,65,0.0,0.0,37,0.00,,---,0.00,VWS V14.01,2013-04-03 14:25:00,
2013-04-03 10:30:00,42.5,16.8,30.30,NE,50,0.0,0.0,35,0.00,,---,0.00,VWS V14.01,2013-04-03 14:30:00,
2013-04-03 10:35:00,42.6,18.2,30.30,NNW,336,0.0,0.0,37,0.00,,---,0.00,VWS V14.01,2013-04-03 14:35:00,
2013-04-03 10:40:00,42.8,16.4,30.30,NE,56,0.0,0.0,34,0.00,,---,0.00,VWS V14.01,2013-04-03 14:40:00,
2013-04-03 10:45:00,42.9,17.1,30.30,NNW,330,0.0,0.0,35,0.00,,---,0.00,VWS V14.01,2013-04-03 14:45:00,
2013-04-03 10:50:00,43.2,16.7,30.31,East,88,0.0,0.0,34,0.00,,---,0.00,VWS V14.01,2013-04-03 14:50:00,
2013-04-03 10:55:00,43.5,17.0,30.30,NNW,340,0.0,0.0,34,0.00,,---,0.00,VWS V14.01,2013-04-03 14:55:00,
2013-04-03 11:00:00,43.6,17.8,30.30,West,261,0.0,0.0,35,0.00,,---,0.00,VWS V14.01,2013-04-03 15:00:00,
2013-04-03 11:05:00,43.7,17.2,30.30,NE,43,0.0,0.0,34,0.00,,---,0.00,VWS V14.01,2013-04-03 15:05:00,
2013-04-03 11:10:00,43.9,17.4,30.30,WSW,253,0.0,0.0,34,0.00,,---,0.00,VWS V14.01,2013-04-03 15:10:00,
2013-04-03 11:15:00,44.3,17.0,30.30,NNW,340,0.0,0.0,33,0.00,,---,0.00,VWS V14.01,2013-04-03 15:15:00,
2013-04-03 11:20:00,44.5,15.8,30.30,ENE,60,0.0,0.0,31,0.00,,---,0.00,VWS V14.01,2013-04-03 15:20:00,
2013-04-03 11:25:00,44.5,17.9,30.30,NW,310,0.0,0.0,34,0.00,,---,0.00,VWS V14.01,2013-04-03 15:25:00,
2013-04-03 11:30:00,44.7,18.1,30.30,NW,326,0.0,0.0,34,0.00,,---,0.00,VWS V14.01,2013-04-03 15:30:00,
2013-04-03 11:35:00,44.8,17.5,30.30,SW,233,0.0,0.0,33,0.00,,---,0.00,VWS V14.01,2013-04-03 15:35:00,
2013-04-03 11:40:00,45.2,17.1,30.30,NNW,336,0.0,0.0,32,0.00,,---,0.00,VWS V14.01,2013-04-03 15:40:00,
2013-04-03 11:45:00,45.5,18.8,30.30,NNW,329,0.0,0.0,34,0.00,,---,0.00,VWS V14.01,2013-04-03 15:45:00,
2013-04-03 11:50:00,45.6,16.0,30.29,NW,313,0.0,0.0,30,0.00,,---,0.00,VWS V14.01,2013-04-03 15:50:00,
2013-04-03 11:55:00,45.9,17.7,30.28,NW,304,0.0,0.0,32,0.00,,---,0.00,VWS V14.01,2013-04-03 15:55:00,
2013-04-03 12:00:00,46.1,14.8,30.28,NNE,28,0.0,0.0,28,0.00,,---,0.00,VWS V14.01,2013-04-03 16:00:00,
2013-04-03 12:05:00,46.1,17.2,30.28,NW,317,0.0,0.0,31,0.00,,---,0.00,VWS V14.01,2013-04-03 16:05:00,
2013-04-03 12:10:00,46.4,15.9,30.27,NNW,343,0.0,0.0,29,0.00,,---,0.00,VWS V14.01,2013-04-03 16:10:00,
2013-04-03 12:15:00,46.4,16.7,30.27,NE,51,0.0,0.0,30,0.00,,---,0.00,VWS V14.01,2013-04-03 16:15:00,
2013-04-03 12:20:00,46.7,17.7,30.26,NNW,338,0.0,0.0,31,0.00,,---,0.00,VWS V14.01,2013-04-03 16:20:00,
2013-04-03 12:25:00,47.1,17.3,30.26,NW,318,0.0,0.0,30,0.00,,---,0.00,VWS V14.01,2013-04-03 16:25:00,
2013-04-03 12:30:00,47.3,15.9,30.26,NW,315,0.0,0.0,28,0.00,,---,0.00,VWS V14.01,2013-04-03 16:30:00,
2013-04-03 12:35:00,47.4,15.9,30.26,WNW,301,0.0,0.0,28,0.00,,---,0.00,VWS V14.01,2013-04-03 16:35:00,
2013-04-03 12:40:00,47.6,17.7,30.25,WNW,298,0.0,0.0,30,0.00,,---,0.00,VWS V14.01,2013-04-03 16:40:00,
2013-04-03 12:45:00,47.7,16.2,30.25,NNW,328,0.0,0.0,28,0.00,,---,0.00,VWS V14.01,2013-04-03 16:45:00,
2013-04-03 12:50:00,47.8,16.3,30.25,NNW,344,0.0,0.0,28,0.00,,---,0.00,VWS V14.01,2013-04-03 16:50:00,
2013-04-03 12:55:00,48.2,14.9,30.24,WNW,286,0.0,0.0,26,0.00,,---,0.00,VWS V14.01,2013-04-03 16:55:00,
2013-04-03 13:00:00,48.7,18.7,30.25,West,266,0.0,0.0,30,0.00,,---,0.00,VWS V14.01,2013-04-03 17:00:00,
2013-04-03 13:01:00,48.9,15.5,30.24,WNW,293,0.0,0.0,26,0.00,,---,0.00,VWS V14.01,2013-04-03 17:01:00,
2013-04-03 13:06:00,49.0,14.7,30.25,NW,310,0.0,0.0,25,0.00,,---,0.00,VWS V14.01,2013-04-03 17:06:00,
2013-04-03 13:11:00,49.3,14.1,30.25,NNW,346,0.0,0.0,24,0.00,,---,0.00,VWS V14.01,2013-04-03 17:11:00,
2013-04-03 13:16:00,49.3,14.1,30.24,WNW,300,0.0,0.0,24,0.00,,---,0.00,VWS V14.01,2013-04-03 17:16:00,
2013-04-03 13:21:00,49.3,13.1,30.24,NW,312,0.0,0.0,23,0.00,,---,0.00,VWS V14.01,2013-04-03 17:21:00,
2013-04-03 13:26:00,49.6,16.1,30.24,NW,313,0.0,0.0,26,0.00,,---,0.00,VWS V14.01,2013-04-03 17:26:00,
2013-04-03 13:30:00,49.7,15.3,30.24,WNW,302,0.0,0.0,25,0.00,,---,0.00,VWS V14.01,2013-04-03 17:30:00,
2013-04-03 13:31:00,49.7,16.2,30.24,West,281,0.0,0.0,26,0.00,,---,0.00,VWS V14.01,2013-04-03 17:31:00,
2013-04-03 13:36:00,49.9,18.9,30.24,NW,311,0.0,0.0,29,0.00,,---,0.00,VWS V14.01,2013-04-03 17:36:00,
2013-04-03 13:42:00,50.1,17.4,30.24,North,355,0.0,0.0,27,0.00,,---,0.00,VWS V14.01,2013-04-03 17:42:00,
2013-04-03 13:47:00,50.4,16.8,30.24,NNE,28,0.0,0.0,26,0.00,,---,0.00,VWS V14.01,2013-04-03 17:47:00,
2013-04-03 13:52:00,50.3,16.7,30.23,NNE,23,0.0,0.0,26,0.00,,---,0.00,VWS V14.01,2013-04-03 17:52:00,
2013-04-03 13:57:00,50.3,17.6,30.24,North,5,0.0,0.0,27,0.00,,---,0.00,VWS V14.01,2013-04-03 17:57:00,
2013-04-03 14:00:00,50.4,16.8,30.24,NNW,327,0.0,0.0,26,0.00,,---,0.00,VWS V14.01,2013-04-03 18:00:00,
2013-04-03 14:02:00,50.5,20.2,30.24,NNW,328,0.0,0.0,30,0.00,,---,0.00,VWS V14.01,2013-04-03 18:02:00,
2013-04-03 14:07:00,51.0,18.2,30.24,North,5,0.0,0.0,27,0.00,,---,0.00,VWS V14.01,2013-04-03 18:07:00,
2013-04-03 14:12:00,51.4,19.4,30.24,NNE,18,0.0,0.0,28,0.00,,---,0.00,VWS V14.01,2013-04-03 18:12:00,
2013-04-03 14:17:00,52.2,17.5,30.24,West,280,0.0,0.0,25,0.00,,---,0.00,VWS V14.01,2013-04-03 18:17:00,
2013-04-03 14:22:00,52.6,15.9,30.24,SW,232,0.0,0.0,23,0.00,,---,0.00,VWS V14.01,2013-04-03 18:22:00,
2013-04-03 14:27:00,52.5,23.5,30.23,North,5,0.0,0.0,32,0.00,,---,0.00,VWS V14.01,2013-04-03 18:27:00,
2013-04-03 14:30:00,52.4,14.7,30.23,NNE,24,0.0,0.0,22,0.00,,---,0.00,VWS V14.01,2013-04-03 18:30:00,
2013-04-03 14:32:00,52.4,17.6,30.23,NW,317,0.0,0.0,25,0.00,,---,0.00,VWS V14.01,2013-04-03 18:32:00,
2013-04-03 14:37:00,52.4,17.6,30.23,West,271,0.0,0.0,25,0.00,,---,0.00,VWS V14.01,2013-04-03 18:37:00,
2013-04-03 14:42:00,52.8,18.0,30.23,NNE,12,0.0,0.0,25,0.00,,---,0.00,VWS V14.01,2013-04-03 18:42:00,
2013-04-03 14:47:00,53.0,17.2,30.23,WNW,294,0.0,0.0,24,0.00,,---,0.00,VWS V14.01,2013-04-03 18:47:00,
2013-04-03 14:52:00,53.2,17.4,30.22,WNW,300,0.0,0.0,24,0.00,,---,0.00,VWS V14.01,2013-04-03 18:52:00,
2013-04-03 14:57:00,53.2,16.4,30.22,NW,319,0.0,0.0,23,0.00,,---,0.00,VWS V14.01,2013-04-03 18:57:00,
2013-04-03 15:00:00,53.2,16.4,30.22,West,281,0.0,0.0,23,0.00,,---,0.00,VWS V14.01,2013-04-03 19:00:00,
2013-04-03 15:02:00,53.3,18.4,30.22,SW,227,0.0,0.0,25,0.00,,---,0.00,VWS V14.01,2013-04-03 19:02:00,
2013-04-03 15:07:00,53.8,21.5,30.22,ESE,104,0.0,0.0,28,0.00,,---,0.00,VWS V14.01,2013-04-03 19:07:00,
2013-04-03 15:12:00,54.1,19.1,30.22,NNW,337,0.0,0.0,25,0.00,,---,0.00,VWS V14.01,2013-04-03 19:12:00,
2013-04-03 15:18:00,54.4,16.4,30.22,NNW,333,0.0,0.0,22,0.00,,---,0.00,VWS V14.01,2013-04-03 19:18:00,
2013-04-03 15:23:00,54.1,20.9,30.22,North,355,0.0,0.0,27,0.00,,---,0.00,VWS V14.01,2013-04-03 19:23:00,
2013-04-03 15:28:00,54.1,15.1,30.22,NW,313,0.0,0.0,21,0.00,,---,0.00,VWS V14.01,2013-04-03 19:28:00,
2013-04-03 15:30:00,54.1,16.1,30.22,West,275,0.0,0.0,22,0.00,,---,0.00,VWS V14.01,2013-04-03 19:30:00,
2013-04-03 15:33:00,53.8,15.9,30.22,NW,314,0.0,0.0,22,0.00,,---,0.00,VWS V14.01,2013-04-03 19:33:00,
2013-04-03 15:38:00,53.6,14.6,30.22,WNW,301,0.0,0.0,21,0.00,,---,0.00,VWS V14.01,2013-04-03 19:38:00,
2013-04-03 15:43:00,53.6,16.7,30.22,NNW,337,0.0,0.0,23,0.00,,---,0.00,VWS V14.01,2013-04-03 19:43:00,
2013-04-03 15:48:00,53.7,17.8,30.22,NNW,330,0.0,0.0,24,0.00,,---,0.00,VWS V14.01,2013-04-03 19:48:00,
2013-04-03 15:53:00,54.0,17.1,30.22,NW,304,0.0,0.0,23,0.00,,---,0.00,VWS V14.01,2013-04-03 19:53:00,
2013-04-03 15:58:00,54.6,17.6,30.22,WNW,296,0.0,0.0,23,0.00,,---,0.00,VWS V14.01,2013-04-03 19:58:00,
2013-04-03 16:00:00,54.8,17.7,30.23,WNW,296,0.0,0.0,23,0.00,,---,0.00,VWS V14.01,2013-04-03 20:00:00,
2013-04-03 16:03:00,55.1,19.9,30.23,WNW,298,0.0,0.0,25,0.00,,---,0.00,VWS V14.01,2013-04-03 20:03:00,
2013-04-03 16:08:00,55.0,17.9,30.23,NNE,21,0.0,0.0,23,0.00,,---,0.00,VWS V14.01,2013-04-03 20:08:00,
2013-04-03 16:13:00,54.8,16.7,30.23,North,360,0.0,0.0,22,0.00,,---,0.00,VWS V14.01,2013-04-03 20:13:00,
2013-04-03 16:18:00,54.9,15.7,30.23,WNW,290,0.0,0.0,21,0.00,,---,0.00,VWS V14.01,2013-04-03 20:18:00,
2013-04-03 16:23:00,55.0,20.8,30.23,North,360,0.0,0.0,26,0.00,,---,0.00,VWS V14.01,2013-04-03 20:23:00,
2013-04-03 16:28:00,55.2,17.0,30.23,NNW,335,4.0,9.0,22,0.00,,---,0.00,VWS V14.01,2013-04-03 20:28:00,
2013-04-03 16:30:00,55.2,18.1,30.23,WNW,297,4.0,15.0,23,0.00,,---,0.00,VWS V14.01,2013-04-03 20:30:00,
2013-04-03 16:33:00,55.5,17.3,30.23,West,275,6.0,10.0,22,0.00,,---,0.00,VWS V14.01,2013-04-03 20:33:00,
2013-04-03 16:38:00,55.4,15.0,30.23,WSW,248,3.0,11.0,20,0.00,,---,0.00,VWS V14.01,2013-04-03 20:38:00,
2013-04-03 16:43:00,55.5,13.9,30.22,WNW,284,0.0,11.0,19,0.00,,---,0.00,VWS V14.01,2013-04-03 20:43:00,
2013-04-03 16:48:00,55.6,18.4,30.22,WNW,289,5.0,11.0,23,0.00,,---,0.00,VWS V14.01,2013-04-03 20:48:00,
2013-04-03 16:53:00,55.7,17.5,30.22,NNW,329,4.0,11.0,22,0.00,,---,0.00,VWS V14.01,2013-04-03 20:53:00,
2013-04-03 16:58:00,55.5,16.2,30.22,NNW,328,11.0,16.0,21,0.00,,---,0.00,VWS V14.01,2013-04-03 20:58:00,
2013-04-03 17:00:00,55.5,15.1,30.22,NNE,13,5.0,16.0,20,0.00,,---,0.00,VWS V14.01,2013-04-03 21:00:00,
2013-04-03 17:03:00,55.3,14.9,30.22,NNW,328,7.0,14.0,20,0.00,,---,0.00,VWS V14.01,2013-04-03 21:03:00,
2013-04-03 17:08:00,55.2,16.0,30.22,West,279,6.0,14.0,21,0.00,,---,0.00,VWS V14.01,2013-04-03 21:08:00,
2013-04-03 17:13:00,55.5,18.3,30.22,WNW,293,6.0,14.0,23,0.00,,---,0.00,VWS V14.01,2013-04-03 21:13:00,
2013-04-03 17:18:00,55.7,17.5,30.22,North,5,5.0,14.0,22,0.00,,---,0.00,VWS V14.01,2013-04-03 21:18:00,
2013-04-03 17:23:00,55.7,19.5,30.22,West,281,5.0,14.0,24,0.00,,---,0.00,VWS V14.01,2013-04-03 21:23:00,
2013-04-03 17:28:00,55.7,16.4,30.22,NNW,336,2.0,14.0,21,0.00,,---,0.00,VWS V14.01,2013-04-03 21:28:00,
2013-04-03 17:30:00,55.7,17.5,30.22,NNW,343,9.0,14.0,22,0.00,,---,0.00,VWS V14.01,2013-04-03 21:30:00,
2013-04-03 17:33:00,55.4,15.0,30.23,NNE,13,4.0,9.0,20,0.00,,---,0.00,VWS V14.01,2013-04-03 21:33:00,
2013-04-03 17:38:00,54.8,14.5,30.22,North,355,4.0,9.0,20,0.00,,---,0.00,VWS V14.01,2013-04-03 21:38:00,
2013-04-03 17:43:00,54.6,15.5,30.22,NNW,335,6.0,9.0,21,0.00,,---,0.00,VWS V14.01,2013-04-03 21:43:00,
2013-04-03 17:48:00,54.6,15.5,30.22,North,360,4.0,11.0,21,0.00,,---,0.00,VWS V14.01,2013-04-03 21:48:00,
2013-04-03 17:53:00,54.7,14.4,30.23,NW,311,4.0,11.0,20,0.00,,---,0.00,VWS V14.01,2013-04-03 21:53:00,
2013-04-03 17:58:00,54.7,17.6,30.23,NNE,17,10.0,11.0,23,0.00,,---,0.00,VWS V14.01,2013-04-03 21:58:00,
2013-04-03 18:00:00,54.7,14.4,30.23,NNW,347,4.0,11.0,20,0.00,,---,0.00,VWS V14.01,2013-04-03 22:00:00,
2013-04-03 18:03:00,54.5,14.3,30.23,NW,323,8.0,14.0,20,0.00,,---,0.00,VWS V14.01,2013-04-03 22:03:00,
2013-04-03 18:08:00,54.3,12.9,30.23,NNW,346,11.0,14.0,19,0.00,,---,0.00,VWS V14.01,2013-04-03 22:08:00,
2013-04-03 18:13:00,54.1,16.1,30.23,NW,325,10.0,14.0,22,0.00,,---,0.00,VWS V14.01,2013-04-03 22:13:00,
2013-04-03 18:18:00,53.8,13.7,30.23,North,360,9.0,14.0,20,0.00,,---,0.00,VWS V14.01,2013-04-03 22:18:00,
2013-04-03 18:22:00,53.6,14.6,30.24,NNW,342,7.0,14.0,21,0.00,,---,0.00,VWS V14.01,2013-04-03 22:22:00,
2013-04-03 18:27:00,53.5,13.4,30.24,North,355,7.0,14.0,20,0.00,,---,0.00,VWS V14.01,2013-04-03 22:27:00,
2013-04-03 18:30:00,53.4,12.2,30.23,NNW,333,5.0,14.0,19,0.00,,---,0.00,VWS V14.01,2013-04-03 22:30:00,
2013-04-03 18:32:00,53.3,12.1,30.24,NNW,335,6.0,10.0,19,0.00,,---,0.00,VWS V14.01,2013-04-03 22:32:00,
2013-04-03 18:37:00,53.0,11.9,30.24,North,5,3.0,11.0,19,0.00,,---,0.00,VWS V14.01,2013-04-03 22:37:00,
2013-04-03 18:42:00,52.7,11.6,30.24,NE,36,7.0,12.0,19,0.00,,---,0.00,VWS V14.01,2013-04-03 22:42:00,
2013-04-03 18:47:00,52.4,13.6,30.24,NNW,339,5.0,12.0,21,0.00,,---,0.00,VWS V14.01,2013-04-03 22:47:00,
2013-04-03 18:52:00,52.1,13.4,30.24,North,355,5.0,12.0,21,0.00,,---,0.00,VWS V14.01,2013-04-03 22:52:00,
2013-04-03 18:57:00,51.8,12.0,30.24,NE,39,3.0,12.0,20,0.00,,---,0.00,VWS V14.01,2013-04-03 22:57:00,
2013-04-03 19:00:00,51.8,13.1,30.24,North,355,5.0,12.0,21,0.00,,---,0.00,VWS V14.01,2013-04-03 23:00:00,
2013-04-03 19:02:00,51.6,13.0,30.25,NNW,346,5.0,8.0,21,0.00,,---,0.00,VWS V14.01,2013-04-03 23:02:00,
2013-04-03 19:07:00,51.4,12.8,30.25,North,355,2.0,13.0,21,0.00,,---,0.00,VWS V14.01,2013-04-03 23:07:00,
2013-04-03 19:12:00,51.2,12.6,30.25,NNW,341,3.0,13.0,21,0.00,,---,0.00,VWS V14.01,2013-04-03 23:12:00,
2013-04-03 19:17:00,51.0,14.5,30.24,NNW,342,3.0,13.0,23,0.00,,---,0.00,VWS V14.01,2013-04-03 23:17:00,
2013-04-03 19:22:00,50.7,12.2,30.24,NNW,330,5.0,13.0,21,0.00,,---,0.00,VWS V14.01,2013-04-03 23:22:00,
2013-04-03 19:27:00,50.5,12.0,30.24,NW,309,3.0,13.0,21,0.00,,---,0.00,VWS V14.01,2013-04-03 23:27:00,
2013-04-03 19:30:00,50.4,11.9,30.24,NNW,346,6.0,13.0,21,0.00,,---,0.00,VWS V14.01,2013-04-03 23:30:00,
2013-04-03 19:32:00,50.4,10.9,30.25,North,5,4.0,10.0,20,0.00,,---,0.00,VWS V14.01,2013-04-03 23:32:00,
2013-04-03 19:37:00,50.2,11.8,30.24,NNW,334,5.0,10.0,21,0.00,,---,0.00,VWS V14.01,2013-04-03 23:37:00,
2013-04-03 19:42:00,49.9,11.5,30.24,NNW,344,6.0,10.0,21,0.00,,---,0.00,VWS V14.01,2013-04-03 23:42:00,
2013-04-03 19:47:00,49.9,10.4,30.24,NNW,340,7.0,10.0,20,0.00,,---,0.00,VWS V14.01,2013-04-03 23:47:00,
2013-04-03 19:52:00,49.8,10.4,30.25,NNW,329,4.0,10.0,20,0.00,,---,0.00,VWS V14.01,2013-04-03 23:52:00,
2013-04-03 19:57:00,49.7,12.4,30.25,North,360,2.0,10.0,22,0.00,,---,0.00,VWS V14.01,2013-04-03 23:57:00,
2013-04-03 20:00:00,49.7,12.4,30.25,North,355,7.0,10.0,22,0.00,,---,0.00,VWS V14.01,2013-04-04 00:00:00,
2013-04-03 20:02:00,49.4,11.1,30.25,North,355,3.0,7.0,21,0.00,,---,0.00,VWS V14.01,2013-04-04 00:02:00,
2013-04-03 20:07:00,49.2,12.0,30.25,NNW,346,2.0,7.0,22,0.00,,---,0.00,VWS V14.01,2013-04-04 00:07:00,
2013-04-03 20:12:00,48.9,11.7,30.25,NNW,348,1.0,7.0,22,0.00,,---,0.00,VWS V14.01,2013-04-04 00:12:00,
2013-04-03 20:17:00,48.7,12.6,30.25,NNW,346,3.0,7.0,23,0.00,,---,0.00,VWS V14.01,2013-04-04 00:17:00,
2013-04-03 20:22:00,48.5,11.4,30.25,North,360,2.0,7.0,22,0.00,,---,0.00,VWS V14.01,2013-04-04 00:22:00,
2013-04-03 20:27:00,48.1,12.1,30.25,NNE,12,3.0,8.0,23,0.00,,---,0.00,VWS V14.01,2013-04-04 00:27:00,
2013-04-03 20:30:00,48.1,11.1,30.25,North,355,7.0,8.0,22,0.00,,---,0.00,VWS V14.01,2013-04-04 00:30:00,
2013-04-03 20:32:00,48.1,11.1,30.26,NNW,344,3.0,12.0,22,0.00,,---,0.00,VWS V14.01,2013-04-04 00:32:00,
2013-04-03 20:37:00,48.0,11.0,30.26,NNE,12,4.0,12.0,22,0.00,,---,0.00,VWS V14.01,2013-04-04 00:37:00,
2013-04-03 20:42:00,47.9,10.9,30.26,NNW,345,3.0,12.0,22,0.00,,---,0.00,VWS V14.01,2013-04-04 00:42:00,
2013-04-03 20:47:00,47.9,10.9,30.27,NNE,24,0.0,12.0,22,0.00,,---,0.00,VWS V14.01,2013-04-04 00:47:00,
2013-04-03 20:52:00,47.8,10.8,30.27,NNE,24,3.0,12.0,22,0.00,,---,0.00,VWS V14.01,2013-04-04 00:52:00,
2013-04-03 20:57:00,47.8,11.8,30.28,East,79,2.0,12.0,23,0.00,,---,0.00,VWS V14.01,2013-04-04 00:57:00,
2013-04-03 21:00:00,47.7,11.7,30.28,East,79,0.0,12.0,23,0.00,,---,0.00,VWS V14.01,2013-04-04 01:00:00,
2013-04-03 21:02:00,47.6,10.6,30.28,NW,306,4.0,6.0,22,0.00,,---,0.00,VWS V14.01,2013-04-04 01:02:00,
2013-04-03 21:07:00,47.6,10.6,30.28,NNE,14,0.0,6.0,22,0.00,,---,0.00,VWS V14.01,2013-04-04 01:07:00,
2013-04-03 21:12:00,47.4,10.5,30.28,NNE,15,0.0,6.0,22,0.00,,---,0.00,VWS V14.01,2013-04-04 01:12:00,
2013-04-03 21:17:00,47.1,13.1,30.28,NNE,15,1.0,6.0,25,0.00,,---,0.00,VWS V14.01,2013-04-04 01:17:00,
2013-04-03 21:22:00,46.7,11.8,30.29,North,355,0.0,6.0,24,0.00,,---,0.00,VWS V14.01,2013-04-04 01:22:00,
2013-04-03 21:27:00,46.3,13.3,30.29,ENE,59,1.0,6.0,26,0.00,,---,0.00,VWS V14.01,2013-04-04 01:27:00,
2013-04-03 21:30:00,46.3,12.4,30.29,ENE,59,0.0,6.0,25,0.00,,---,0.00,VWS V14.01,2013-04-04 01:30:00,
2013-04-03 21:32:00,46.3,12.4,30.29,NNW,344,3.0,4.0,25,0.00,,---,0.00,VWS V14.01,2013-04-04 01:32:00,
2013-04-03 21:37:00,46.3,11.5,30.30,North,5,1.0,6.0,24,0.00,,---,0.00,VWS V14.01,2013-04-04 01:37:00,
2013-04-03 21:42:00,46.2,11.4,30.30,North,11,0.0,7.0,24,0.00,,---,0.00,VWS V14.01,2013-04-04 01:42:00,
2013-04-03 21:47:00,46.2,10.5,30.30,North,360,3.0,7.0,23,0.00,,---,0.00,VWS V14.01,2013-04-04 01:47:00,
2013-04-03 21:52:00,46.1,10.4,30.30,NNE,18,4.0,7.0,23,0.00,,---,0.00,VWS V14.01,2013-04-04 01:52:00,
2013-04-03 21:57:00,46.1,10.4,30.30,North,9,0.0,7.0,23,0.00,,---,0.00,VWS V14.01,2013-04-04 01:57:00,
2013-04-03 22:00:00,46.0,11.2,30.30,North,9,1.0,7.0,24,0.00,,---,0.00,VWS V14.01,2013-04-04 02:00:00,
2013-04-03 22:02:00,46.0,11.2,30.31,North,9,0.0,2.0,24,0.00,,---,0.00,VWS V14.01,2013-04-04 02:02:00,
2013-04-03 22:07:00,45.9,10.2,30.31,North,9,2.0,2.0,23,0.00,,---,0.00,VWS V14.01,2013-04-04 02:07:00,
2013-04-03 22:12:00,45.8,11.1,30.31,North,9,1.0,3.0,24,0.00,,---,0.00,VWS V14.01,2013-04-04 02:12:00,
2013-04-03 22:17:00,45.5,11.7,30.31,North,9,2.0,4.0,25,0.00,,---,0.00,VWS V14.01,2013-04-04 02:17:00,
2013-04-03 22:22:00,45.1,11.4,30.32,North,9,0.0,4.0,25,0.00,,---,0.00,VWS V14.01,2013-04-04 02:22:00,
2013-04-03 22:27:00,45.0,10.4,30.32,North,9,2.0,4.0,24,0.00,,---,0.00,VWS V14.01,2013-04-04 02:27:00,
2013-04-03 22:30:00,44.9,10.3,30.32,North,9,3.0,4.0,24,0.00,,---,0.00,VWS V14.01,2013-04-04 02:30:00,
2013-04-03 22:32:00,44.8,11.1,30.32,North,9,4.0,5.0,25,0.00,,---,0.00,VWS V14.01,2013-04-04 02:32:00,
2013-04-03 22:37:00,44.6,11.0,30.32,North,5,1.0,5.0,25,0.00,,---,0.00,VWS V14.01,2013-04-04 02:37:00,
2013-04-03 22:42:00,44.5,10.0,30.33,North,360,2.0,5.0,24,0.00,,---,0.00,VWS V14.01,2013-04-04 02:42:00,
2013-04-03 22:47:00,44.4,10.8,30.33,North,360,1.0,5.0,25,0.00,,---,0.00,VWS V14.01,2013-04-04 02:47:00,
2013-04-03 22:52:00,44.3,10.7,30.33,North,360,2.0,5.0,25,0.00,,---,0.00,VWS V14.01,2013-04-04 02:52:00,
2013-04-03 22:57:00,44.2,10.6,30.33,North,360,0.0,5.0,25,0.00,,---,0.00,VWS V14.01,2013-04-04 02:57:00,
2013-04-03 23:00:00,44.2,10.6,30.33,North,360,2.0,5.0,25,0.00,,---,0.00,VWS V14.01,2013-04-04 03:00:00,
2013-04-03 23:02:00,44.1,11.4,30.33,North,360,1.0,3.0,26,0.00,,---,0.00,VWS V14.01,2013-04-04 03:02:00,
2013-04-03 23:07:00,43.8,11.2,30.33,North,360,0.0,4.0,26,0.00,,---,0.00,VWS V14.01,2013-04-04 03:07:00,
2013-04-03 23:12:00,43.6,11.0,30.33,North,360,1.0,4.0,26,0.00,,---,0.00,VWS V14.01,2013-04-04 03:12:00,
2013-04-03 23:17:00,43.5,13.4,30.32,North,360,2.0,4.0,29,0.00,,---,0.00,VWS V14.01,2013-04-04 03:17:00,
2013-04-03 23:22:00,43.2,11.5,30.33,North,360,0.0,4.0,27,0.00,,---,0.00,VWS V14.01,2013-04-04 03:22:00,
2013-04-03 23:27:00,43.0,11.3,30.33,North,360,1.0,4.0,27,0.00,,---,0.00,VWS V14.01,2013-04-04 03:27:00,
2013-04-03 23:30:00,43.0,12.1,30.33,North,360,3.0,4.0,28,0.00,,---,0.00,VWS V14.01,2013-04-04 03:30:00,
2013-04-03 23:32:00,42.8,12.0,30.33,North,360,0.0,4.0,28,0.00,,---,0.00,VWS V14.01,2013-04-04 03:32:00,
2013-04-03 23:37:00,42.7,11.1,30.34,North,360,0.0,4.0,27,0.00,,---,0.00,VWS V14.01,2013-04-04 03:37:00,
2013-04-03 23:42:00,42.5,11.7,30.33,North,360,2.0,4.0,28,0.00,,---,0.00,VWS V14.01,2013-04-04 03:42:00,
2013-04-03 23:47:00,42.3,11.5,30.34,North,360,0.0,4.0,28,0.00,,---,0.00,VWS V14.01,2013-04-04 03:47:00,
2013-04-03 23:52:00,42.0,12.8,30.33,North,360,0.0,4.0,30,0.00,,---,0.00,VWS V14.01,2013-04-04 03:52:00,
2013-04-03 23:57:00,41.8,11.9,30.34,North,360,1.0,4.0,29,0.00,,---,0.00,VWS V14.01,2013-04-04 03:57:00,